Regional Weather Roundup
Issued by NWS Cleveland, OH

Current Version | Previous Version | Text Only | Print | Product List | Glossary On
Versions: 1 2 3 4 5 6 7 8 9 10 11 12 13 14 15 16 17 18 19 20 21 22 23 24 25 26 27 28 29 30 31 32 33 34 35 36 37 38 39 40 41 42 43 44 45 46 47 48 49 50
000 ASUS41 KCLE 020810 RWRCLE OHIO REGIONAL WEATHER ROUNDUP NATIONAL WEATHER SERVICE CLEVELAND, OH 400 AM EDT SUN AUG 02 2015 NOTE: "FAIR" INDICATES FEW OR NO CLOUDS BELOW 12,000 FEET WITH NO SIGNIFICANT WEATHER AND/OR OBSTRUCTIONS TO VISIBILITY. OHZ001>008-015>018-024>027-034-035-043-044-020900- NORTHWEST OHIO CITY SKY/WX TMP DP RH WIND PRES REMARKS DEFIANCE CLEAR 67 60 78 CALM 29.91S FINDLAY PTCLDY 69 59 70 SW7 29.92S TOLEDO EXPRESS CLEAR 65 58 78 SW5 29.90F TOLEDO EXEC CLEAR 68 58 70 SW8 29.91S LIMA CLEAR 68 58 70 SW7 29.95S $$ OHZ009>014-019>023-028>033-038-089-020900- NORTHEAST OHIO CITY SKY/WX TMP DP RH WIND PRES REMARKS CLE-HOPKINS CLOUDY 69 55 60 SW7 29.93F CLE-LAKEFRONT CLOUDY 73 56 54 SW9 29.90S CUY CO. ARPT NOT AVBL LORAIN-ELYRIA PTCLDY 64 56 75 SW6 29.93S ASHTABULA CLEAR 61 55 81 CALM 29.92F AKRON-CANTON PTCLDY 62 54 74 S6 29.95S WOOSTER CLOUDY 62 59 90 SW7 29.96S MANSFIELD MOCLDY 63 61 93 SW7 29.96S YOUNGSTOWN PTCLDY 63 57 81 S3 29.93F $$ OHZ042-051>053-060>062-070>072-077>081-020900- SOUTHWEST OHIO CITY SKY/WX TMP DP RH WIND PRES REMARKS CINC-COVINGTON MOCLDY 61 60 97 CALM 30.00S CINC-LUNKEN MOCLDY 62 61 96 CALM 30.00S HAMILTON MOCLDY 62 61 96 CALM 30.00S DAYTON MOCLDY 66 59 78 SW7 29.99S WRIGHT-PAT AFB MOCLDY 65 59 83 S5 29.98S DAYTON GENERAL MOCLDY 65 58 78 S3 29.99S WILMINGTON PTCLDY 65 57 75 W6 29.99F $$ OHZ036-037-039>041-045>050-054>059-063>069-073>076-082>088-020900- CENTRAL AND SOUTHEAST OHIO CITY SKY/WX TMP DP RH WIND PRES REMARKS COLUMBUS MOCLDY 65 59 81 SE3 29.97S OSU AIRPORT CLOUDY 67 57 70 W6 29.97S BOLTON FIELD PTCLDY 63 58 84 W5 29.98S RICKENBACK AFB PTCLDY 61 58 90 CALM 29.97S NEWARK PTCLDY 60 57 89 CALM 29.97S MARION PTCLDY 69 56 62 W8 29.96R LANCASTER PTCLDY 59 56 89 CALM 29.98S ZANESVILLE PTCLDY 60 57 89 CALM 29.97S NEW PHILLY MOCLDY 59 58 96 SE3 29.97R $$

USA.gov is the U.S. government's official web portal to all federal, state and local government web resources and services.